DW5499 Weather Reports


time (UTC)temp
C
wind
direction
speed
KPH
gust
KPH
rain 1hr
cm
rain 24hr
cm
rain mn
cm
humidity
%
barometer
mb
20260508024507 17 196 9.7 24.1 0.00 0.00 0.00 53 1010.5
20260508023019 17 212 4.8 19.3 0.00 0.00 0.00 52 1010.4
20260508021511 17 139 9.7 16.1 0.00 0.00 0.00 52 1010.2
20260508020005 18 158 6.4 12.9 0.00 0.00 0.00 51 1010.1
20260508014517 18 169 6.4 12.9 0.00 0.00 0.00 49 1009.9
20260508013005 18 182 6.4 14.5 0.00 0.00 0.00 48 1009.9
20260508011505 19 178 9.7 17.7 0.00 0.00 0.00 47 1009.9
20260508010004 20 192 9.7 17.7 0.00 0.00 0.00 46 1009.9
20260508004513 20 141 9.7 16.1 0.00 0.00 0.00 45 1009.9
20260508003012 20 207 8.0 19.3 0.00 0.00 0.00 44 1009.8
20260508001502 20 177 9.7 24.1 0.00 0.00 0.00 43 1009.9
20260508000000 21 144 9.7 25.7 0.00 0.00 0.00 42 1010.0
20260507234601 21 194 8.0 19.3 0.00 0.00 0.00 42 1010.1
20260507233058 21 174 12.9 25.7 0.00 0.00 0.00 40 1010.3
20260507231557 21 209 8.0 19.3 0.00 0.00 0.00 40 1010.4
20260507230057 21 217 9.7 22.5 0.00 0.00 0.00 40 1010.6
20260507224611 21 153 9.7 19.3 0.00 0.00 0.00 41 1010.7
20260507223056 21 232 12.9 24.1 0.00 0.00 0.00 41 1010.8
20260507221548 20 246 8.0 32.2 0.00 0.00 0.00 43 1010.9
20260507220047 20 151 16.1 29.0 0.00 0.00 0.00 43 1011.0
20260507214550 20 222 14.5 32.2 0.00 0.00 0.00 43 1011.0
20260507213045 20 237 20.9 35.4 0.00 0.00 0.00 43 1011.2
20260507211600 20 278 14.5 37.0 0.00 0.00 0.00 44 1011.3
20260507210042 20 144 11.3 29.0 0.00 0.00 0.00 44 1011.6
20260507204538 20 216 16.1 30.6 0.00 0.00 0.00 44 1011.8
20260507203036 20 245 17.7 30.6 0.00 0.00 0.00 45 1012.1
20260507201533 19 164 14.5 33.8 0.00 0.00 0.00 46 1012.4
20260507200029 19 195 20.9 35.4 0.00 0.00 0.00 47 1012.8
20260507194528 18 173 14.5 35.4 0.00 0.00 0.00 47 1012.9
20260507193024 18 180 16.1 35.4 0.00 0.00 0.00 48 1013.2
20260507191522 18 193 16.1 38.6 0.00 0.00 0.00 49 1013.4
20260507190027 18 220 22.5 30.6 0.00 0.00 0.00 48 1013.4
20260507184520 17 205 14.5 35.4 0.00 0.00 0.00 49 1013.6
20260507183022 17 193 11.3 38.6 0.00 0.00 0.00 50 1013.7
20260507181514 17 232 14.5 35.4 0.00 0.00 0.00 50 1014.0
20260507180014 17 217 16.1 35.4 0.00 0.00 0.00 50 1014.4
20260507174510 17 219 14.5 25.7 0.00 0.00 0.00 50 1014.6
20260507173007 16 207 19.3 32.2 0.00 0.00 0.00 51 1015.0
20260507171506 16 286 14.5 33.8 0.00 0.00 0.00 52 1015.0
20260507170003 16 248 14.5 29.0 0.00 0.00 0.00 52 1015.4
20260507164603 16 228 16.1 35.4 0.00 0.00 0.00 53 1015.6
20260507163058 16 233 19.3 37.0 0.00 0.00 0.00 54 1015.9
20260507161559 15 223 19.3 37.0 0.00 0.00 0.00 53 1016.1
20260507160053 15 245 22.5 33.8 0.00 0.00 0.00 55 1016.1
20260507154551 15 245 17.7 38.6 0.00 0.00 0.00 55 1016.2
20260507153054 14 216 17.7 37.0 0.00 0.00 0.00 57 1016.3
20260507151548 14 201 9.7 30.6 0.00 0.00 0.00 58 1016.4
20260507150045 13 207 17.7 25.7 0.00 0.00 0.00 60 1016.6
20260507144542 13 213 14.5 29.0 0.00 0.00 0.00 61 1016.7
20260507143042 13 230 14.5 33.8 0.00 0.00 0.00 62 1016.9
20260507141538 12 174 9.7 20.9 0.00 0.00 0.00 64 1016.7
20260507140042 12 237 6.4 19.3 0.00 0.00 0.00 66 1016.9
20260507134531 11 207 9.7 22.5 0.00 0.00 0.00 69 1016.9
20260507133031 11 231 8.0 24.1 0.00 0.00 0.00 70 1016.9
20260507131536 10 188 8.0 22.5 0.00 0.00 0.00 70 1016.9
20260507130028 10 209 9.7 20.9 0.00 0.00 0.00 71 1017.0
20260507124531 10 198 9.7 19.3 0.00 0.00 0.00 73 1017.2
20260507123028 9 215 6.4 22.5 0.00 0.00 0.00 74 1017.3
20260507121526 8 230 6.4 17.7 0.00 0.00 0.00 76 1017.3
20260507120024 7 176 3.2 9.7 0.00 0.00 0.00 77 1017.2
20260507114523 7 185 1.6 6.4 0.00 0.00 0.00 77 1017.2
20260507113023 7 204 0.0 6.4 0.00 0.00 0.00 77 1017.2
20260507111521 7 148 8.0 17.7 0.00 0.00 0.00 76 1017.1
20260507110019 7 172 0.0 8.0 0.00 0.00 0.00 75 1017.1
20260507104524 7 170 0.0 4.8 0.00 0.00 0.00 73 1017.1
20260507103015 7 192 0.0 4.8 0.00 0.00 0.00 72 1017.1
20260507101512 7 187 0.0 8.0 0.00 0.00 0.00 71 1017.3
20260507100025 8 201 0.0 3.2 0.00 0.00 0.00 70 1017.4
20260507094508 8 229 1.6 4.8 0.00 0.00 0.00 69 1017.4
20260507093005 8 196 0.0 4.8 0.00 0.00 0.00 67 1017.4
20260507091512 8 248 1.6 6.4 0.00 0.00 0.00 66 1017.5
20260507090002 9 257 0.0 6.4 0.00 0.00 0.00 65 1017.5
20260507084601 9 256 1.6 8.0 0.00 0.00 0.00 64 1017.5
20260507083105 9 214 1.6 8.0 0.00 0.00 0.00 63 1017.6
20260507081600 9 226 0.0 8.0 0.00 0.00 0.00 63 1017.7
20260507080056 9 232 0.0 8.0 0.00 0.00 0.00 61 1017.7
20260507074554 10 255 1.6 9.7 0.00 0.00 0.00 59 1017.7
20260507073102 10 257 3.2 8.0 0.00 0.00 0.00 57 1017.7
20260507071556 10 305 1.6 11.3 0.00 0.00 0.00 56 1017.8
20260507070135 10 229 3.2 9.7 0.00 0.00 0.00 54 1018.1
20260507064551 11 234 3.2 11.3 0.00 0.00 0.00 53 1018.2
20260507063048 11 207 4.8 11.3 0.00 0.00 0.00 52 1018.3
20260507061548 11 257 4.8 12.9 0.00 0.00 0.00 50 1018.4
20260507060052 11 254 6.4 14.5 0.00 0.00 0.00 49 1018.4
20260507054551 11 218 4.8 8.0 0.00 0.03 0.00 50 1018.4
20260507053043 10 228 1.6 6.4 0.00 0.03 0.00 53 1018.5
20260507051538 10 181 0.0 3.2 0.00 0.03 0.00 62 1018.4
20260507050035 9 205 0.0 0.0 0.00 0.03 0.00 67 1018.4
20260507044544 9 205 0.0 0.0 0.00 0.03 0.03 69 1018.5
20260507043039 9 205 0.0 0.0 0.00 0.03 0.03 69 1018.6
20260507041533 9 205 0.0 1.6 0.00 0.03 0.03 71 1018.5
20260507040032 9 241 0.0 0.0 0.00 0.03 0.03 64 1018.6
20260507034533 9 241 0.0 0.0 0.00 0.03 0.03 65 1018.7
20260507033031 8 241 0.0 0.0 0.00 0.03 0.03 65 1018.8
20260507031531 9 241 0.0 0.0 0.00 0.03 0.03 64 1018.6
20260507030035 9 241 0.0 3.2 0.00 0.03 0.03 62 1018.7